Tracking 25656 objects as of 22-May-2022
HD Live streaming from Space Station
objects crossing your sky now

DELTA 1 DEB

Track DELTA 1 DEB now!
10-day predictions


NORAD ID: 10305
Int'l Code: 1977-065DB
Perigee: 584.1 km
Apogee: 839.2 km
Inclination: 29.1 °
Period: 98.9 minutes
Semi major axis: 7082 km
RCS: 0.0383 m2 (small)
Launch date: July 14, 1977
Source: United States (US)
Launch site: AIR FORCE EASTERN TEST RANGE (AFETR)

Note: This is SATELLITE DEBRIS
aabbcc
Your satellite tracking list
Your tracking list is empty




NASA's NSSDC Master Catalog

Two Line Element Set (TLE):
1 10305U 77065DB  22141.07034050  .00028173  00000-0  49462-2 0  9991
2 10305  29.0510 110.6636 0180104 242.3999 115.8193 14.56490354208046
Source of the keplerian elements: AFSPC